Year,Month,Day,Hour,Minute,Value (Times are PST for windspeed in km/hr)
2006,12,21,00,00,15.90
2006,12,21,00,01,12.50
2006,12,21,00,02,12.70
2006,12,21,00,03,14.50
2006,12,21,00,04,10.90
2006,12,21,00,05,9.00
2006,12,21,00,06,7.00
2006,12,21,00,07,13.30
2006,12,21,00,08,14.70
2006,12,21,00,09,13.20
2006,12,21,00,10,9.30
2006,12,21,00,11,9.60
2006,12,21,00,12,8.60
2006,12,21,00,13,7.40
2006,12,21,00,14,9.70
2006,12,21,00,15,6.90
2006,12,21,00,16,7.60
2006,12,21,00,17,7.40
2006,12,21,00,18,7.80
2006,12,21,00,19,9.60
2006,12,21,00,20,5.90
2006,12,21,00,21,10.60
2006,12,21,00,22,7.30
2006,12,21,00,23,10.50
2006,12,21,00,24,7.20
2006,12,21,00,25,10.40
2006,12,21,00,26,6.90
2006,12,21,00,27,11.50
2006,12,21,00,28,9.10
2006,12,21,00,29,4.80
2006,12,21,00,30,6.70
2006,12,21,00,31,8.10
2006,12,21,00,32,7.30
2006,12,21,00,33,5.40
2006,12,21,00,34,6.50
2006,12,21,00,35,5.60
2006,12,21,00,36,7.40
2006,12,21,00,37,7.20
2006,12,21,00,38,6.60
2006,12,21,00,39,4.60
2006,12,21,00,40,7.30
2006,12,21,00,41,8.60
2006,12,21,00,42,8.20
2006,12,21,00,43,6.90
2006,12,21,00,44,7.50
2006,12,21,00,45,6.80
2006,12,21,00,46,7.00
2006,12,21,00,47,8.10
2006,12,21,00,48,8.00
2006,12,21,00,49,8.60
2006,12,21,00,50,8.00
2006,12,21,00,51,6.40
2006,12,21,00,52,5.70
2006,12,21,00,53,7.40
2006,12,21,00,54,5.90
2006,12,21,00,55,6.30
2006,12,21,00,56,8.50
2006,12,21,00,57,7.40
2006,12,21,00,58,8.90
2006,12,21,00,59,6.60
2006,12,21,01,00,6.20
2006,12,21,01,01,7.20
2006,12,21,01,02,5.90
2006,12,21,01,03,7.60
2006,12,21,01,04,6.40
2006,12,21,01,05,6.90
2006,12,21,01,06,7.10
2006,12,21,01,07,5.40
2006,12,21,01,08,3.80
2006,12,21,01,09,4.70
2006,12,21,01,10,5.30
2006,12,21,01,11,7.00
2006,12,21,01,12,6.20
2006,12,21,01,13,7.90
2006,12,21,01,14,4.80
2006,12,21,01,15,6.70
2006,12,21,01,16,9.70
2006,12,21,01,17,13.20
2006,12,21,01,18,13.40
2006,12,21,01,19,11.20
2006,12,21,01,20,10.40
2006,12,21,01,21,6.80
2006,12,21,01,22,7.00
2006,12,21,01,23,8.10
2006,12,21,01,24,9.40
2006,12,21,01,25,8.50
2006,12,21,01,26,7.50
2006,12,21,01,27,9.30
2006,12,21,01,28,9.10
2006,12,21,01,29,9.20
2006,12,21,01,30,9.10
2006,12,21,01,31,9.20
2006,12,21,01,32,8.50
2006,12,21,01,33,5.80
2006,12,21,01,34,4.20
2006,12,21,01,35,8.10
2006,12,21,01,36,5.40
2006,12,21,01,37,6.00
2006,12,21,01,38,8.70
2006,12,21,01,39,12.00
2006,12,21,01,40,9.20
2006,12,21,01,41,6.00
2006,12,21,01,42,8.50
2006,12,21,01,43,5.30
2006,12,21,01,44,8.10
2006,12,21,01,45,11.40
2006,12,21,01,46,7.30
2006,12,21,01,47,10.10
2006,12,21,01,48,8.10
2006,12,21,01,49,8.10
2006,12,21,01,50,6.60
2006,12,21,01,51,12.90
2006,12,21,01,52,11.20
2006,12,21,01,53,6.40
2006,12,21,01,54,6.60
2006,12,21,01,55,11.10
2006,12,21,01,56,13.40
2006,12,21,01,57,10.80
2006,12,21,01,58,11.80
2006,12,21,01,59,10.30
2006,12,21,02,00,6.20
2006,12,21,02,01,3.10
2006,12,21,02,02,7.90
2006,12,21,02,03,6.70
2006,12,21,02,04,3.80
2006,12,21,02,05,5.10
2006,12,21,02,06,6.90
2006,12,21,02,07,9.80
2006,12,21,02,08,9.30
2006,12,21,02,09,6.90
2006,12,21,02,10,6.10
2006,12,21,02,11,10.00
2006,12,21,02,12,8.60
2006,12,21,02,13,10.80
2006,12,21,02,14,13.40
2006,12,21,02,15,14.70
2006,12,21,02,16,12.20
2006,12,21,02,17,10.30
2006,12,21,02,18,20.10
2006,12,21,02,19,18.90
2006,12,21,02,20,23.50
2006,12,21,02,21,16.10
2006,12,21,02,22,9.60
2006,12,21,02,23,9.70
2006,12,21,02,24,15.50
2006,12,21,02,25,18.00
2006,12,21,02,26,15.20
2006,12,21,02,27,17.10
2006,12,21,02,28,15.50
2006,12,21,02,29,20.50
2006,12,21,02,30,17.50
2006,12,21,02,31,16.80
2006,12,21,02,32,16.20
2006,12,21,02,33,16.20
2006,12,21,02,34,15.70
2006,12,21,02,35,14.50
2006,12,21,02,36,14.50
2006,12,21,02,37,13.60
2006,12,21,02,38,12.60
2006,12,21,02,39,11.90
2006,12,21,02,40,13.50
2006,12,21,02,41,12.20
2006,12,21,02,42,8.90
2006,12,21,02,43,7.10
2006,12,21,02,44,11.30
2006,12,21,02,45,11.70
2006,12,21,02,46,10.90
2006,12,21,02,47,12.50
2006,12,21,02,48,11.30
2006,12,21,02,49,7.30
2006,12,21,02,50,8.00
2006,12,21,02,51,8.90
2006,12,21,02,52,7.50
2006,12,21,02,53,5.90
2006,12,21,02,54,4.40
2006,12,21,02,55,8.00
2006,12,21,02,56,8.40
2006,12,21,02,57,6.40
2006,12,21,02,58,4.20
2006,12,21,02,59,4.30
2006,12,21,03,00,3.40
2006,12,21,03,01,3.70
2006,12,21,03,02,5.00
2006,12,21,03,03,3.30
2006,12,21,03,04,3.50
2006,12,21,03,05,2.70
2006,12,21,03,06,4.80
2006,12,21,03,07,2.90
2006,12,21,03,08,2.50
2006,12,21,03,09,5.20
2006,12,21,03,10,6.20
2006,12,21,03,11,3.90
2006,12,21,03,12,5.30
2006,12,21,03,13,3.50
2006,12,21,03,14,4.70
2006,12,21,03,15,5.20
2006,12,21,03,16,3.80
2006,12,21,03,17,4.80
2006,12,21,03,18,5.40
2006,12,21,03,19,4.70
2006,12,21,03,20,5.50
2006,12,21,03,21,9.30
2006,12,21,03,22,6.90
2006,12,21,03,23,6.60
2006,12,21,03,24,7.40
2006,12,21,03,25,5.20
2006,12,21,03,26,7.10
2006,12,21,03,27,8.10
2006,12,21,03,28,7.20
2006,12,21,03,29,6.40
2006,12,21,03,30,4.60
2006,12,21,03,31,5.00
2006,12,21,03,32,9.40
2006,12,21,03,33,6.50
2006,12,21,03,34,9.80
2006,12,21,03,35,3.80
2006,12,21,03,36,4.20
2006,12,21,03,37,6.90
2006,12,21,03,38,7.80
2006,12,21,03,39,9.10
2006,12,21,03,40,6.30
2006,12,21,03,41,4.70
2006,12,21,03,42,4.60
2006,12,21,03,43,5.20
2006,12,21,03,44,3.10
2006,12,21,03,45,5.60
2006,12,21,03,46,4.80
2006,12,21,03,47,6.40
2006,12,21,03,48,7.10
2006,12,21,03,49,7.30
2006,12,21,03,50,8.20
2006,12,21,03,51,8.40
2006,12,21,03,52,6.90
2006,12,21,03,53,8.00
2006,12,21,03,54,9.00
2006,12,21,03,55,10.90
2006,12,21,03,56,11.40
2006,12,21,03,57,16.30
2006,12,21,03,58,15.80
2006,12,21,03,59,33.00
2006,12,21,04,00,30.60
2006,12,21,04,01,28.80
2006,12,21,04,02,26.20
2006,12,21,04,03,26.00
2006,12,21,04,04,22.20
2006,12,21,04,05,22.50
2006,12,21,04,06,20.70
2006,12,21,04,07,13.40
2006,12,21,04,08,10.80
2006,12,21,04,09,21.50
2006,12,21,04,10,15.50
2006,12,21,04,11,16.80
2006,12,21,04,12,11.60
2006,12,21,04,13,12.80
2006,12,21,04,14,8.40
2006,12,21,04,15,22.80
2006,12,21,04,16,18.80
2006,12,21,04,17,19.70
2006,12,21,04,18,19.90
2006,12,21,04,19,23.80
2006,12,21,04,20,18.20
2006,12,21,04,21,16.90
2006,12,21,04,22,20.10
2006,12,21,04,23,17.10
2006,12,21,04,24,13.40
2006,12,21,04,25,12.20
2006,12,21,04,26,10.20
2006,12,21,04,27,14.50
2006,12,21,04,28,13.90
2006,12,21,04,29,13.90
2006,12,21,04,30,16.30
2006,12,21,04,31,5.80
2006,12,21,04,32,16.00
2006,12,21,04,33,18.60
2006,12,21,04,34,16.30
2006,12,21,04,35,10.60
2006,12,21,04,36,12.50
2006,12,21,04,37,15.50
2006,12,21,04,38,12.20
2006,12,21,04,39,15.20
2006,12,21,04,40,16.60
2006,12,21,04,41,8.70
2006,12,21,04,42,9.70
2006,12,21,04,43,12.70
2006,12,21,04,44,8.90
2006,12,21,04,45,11.80
2006,12,21,04,46,14.10
2006,12,21,04,47,13.90
2006,12,21,04,48,15.00
2006,12,21,04,49,11.60
2006,12,21,04,50,17.00
2006,12,21,04,51,16.30
2006,12,21,04,52,17.00
2006,12,21,04,53,12.80
2006,12,21,04,54,13.40
2006,12,21,04,55,11.40
2006,12,21,04,56,13.60
2006,12,21,04,57,10.10
2006,12,21,04,58,8.60
2006,12,21,04,59,10.70
2006,12,21,05,00,8.60
2006,12,21,05,01,12.40
2006,12,21,05,02,15.20
2006,12,21,05,03,18.30
2006,12,21,05,04,16.20
2006,12,21,05,05,21.10
2006,12,21,05,06,22.60
2006,12,21,05,07,15.90
2006,12,21,05,08,17.70
2006,12,21,05,09,9.70
2006,12,21,05,10,7.90
2006,12,21,05,11,13.90
2006,12,21,05,12,22.40
2006,12,21,05,13,14.50
2006,12,21,05,14,18.40
2006,12,21,05,15,23.70
2006,12,21,05,16,15.30
2006,12,21,05,17,12.10
2006,12,21,05,18,15.70
2006,12,21,05,19,15.90
2006,12,21,05,20,14.50
2006,12,21,05,21,15.00
2006,12,21,05,22,7.70
2006,12,21,05,23,5.10
2006,12,21,05,24,5.80
2006,12,21,05,25,6.20
2006,12,21,05,26,8.60
2006,12,21,05,27,8.80
2006,12,21,05,28,9.30
2006,12,21,05,29,5.70
2006,12,21,05,30,4.10
2006,12,21,05,31,5.60
2006,12,21,05,32,8.90
2006,12,21,05,33,3.50
2006,12,21,05,34,7.10
2006,12,21,05,35,7.80
2006,12,21,05,36,5.50
2006,12,21,05,37,5.60
2006,12,21,05,38,4.50
2006,12,21,05,39,4.80
2006,12,21,05,40,6.30
2006,12,21,05,41,10.10
2006,12,21,05,42,8.10
2006,12,21,05,43,6.40
2006,12,21,05,44,7.80
2006,12,21,05,45,7.60
2006,12,21,05,46,5.60
2006,12,21,05,47,7.90
2006,12,21,05,48,6.70
2006,12,21,05,49,7.40
2006,12,21,05,50,6.90
2006,12,21,05,51,7.50
2006,12,21,05,52,7.10
2006,12,21,05,53,4.30
2006,12,21,05,54,6.40
2006,12,21,05,55,10.50
2006,12,21,05,56,11.20
2006,12,21,05,57,9.20
2006,12,21,05,58,12.80
2006,12,21,05,59,7.80
2006,12,21,06,00,8.50
2006,12,21,06,01,5.20
2006,12,21,06,02,7.60
2006,12,21,06,03,4.80
2006,12,21,06,04,4.70
2006,12,21,06,05,22.60
2006,12,21,06,06,15.50
2006,12,21,06,07,15.00
2006,12,21,06,08,11.10
2006,12,21,06,09,11.50
2006,12,21,06,10,24.20
2006,12,21,06,11,19.70
2006,12,21,06,12,17.40
2006,12,21,06,13,14.30
2006,12,21,06,14,15.80
2006,12,21,06,15,14.90
2006,12,21,06,16,21.30
2006,12,21,06,17,16.10
2006,12,21,06,18,16.10
2006,12,21,06,19,15.20
2006,12,21,06,20,11.20
2006,12,21,06,21,12.00
2006,12,21,06,22,11.50
2006,12,21,06,23,11.70
2006,12,21,06,24,13.70
2006,12,21,06,25,17.50
2006,12,21,06,26,17.60
2006,12,21,06,27,18.30
2006,12,21,06,28,18.90
2006,12,21,06,29,19.60
2006,12,21,06,30,20.80
2006,12,21,06,31,18.90
2006,12,21,06,32,26.70
2006,12,21,06,33,17.50
2006,12,21,06,34,17.20
2006,12,21,06,35,16.80
2006,12,21,06,36,10.30
2006,12,21,06,37,13.10
2006,12,21,06,38,15.10
2006,12,21,06,39,19.40
2006,12,21,06,40,17.30
2006,12,21,06,41,16.90
2006,12,21,06,42,14.90
2006,12,21,06,43,16.40
2006,12,21,06,44,11.90
2006,12,21,06,45,12.40
2006,12,21,06,46,13.20
2006,12,21,06,47,15.90
2006,12,21,06,48,18.20
2006,12,21,06,49,27.10
2006,12,21,06,50,20.90
2006,12,21,06,51,17.80
2006,12,21,06,52,14.60
2006,12,21,06,53,18.20
2006,12,21,06,54,19.40
2006,12,21,06,55,14.50
2006,12,21,06,56,16.00
2006,12,21,06,57,16.50
2006,12,21,06,58,13.60
2006,12,21,06,59,8.20
2006,12,21,07,00,14.30
2006,12,21,07,01,8.10
2006,12,21,07,02,7.90
2006,12,21,07,03,9.60
2006,12,21,07,04,6.50
2006,12,21,07,05,4.10
2006,12,21,07,06,5.00
2006,12,21,07,07,3.50
2006,12,21,07,08,7.20
2006,12,21,07,09,8.40
2006,12,21,07,10,5.60
2006,12,21,07,11,6.70
2006,12,21,07,12,3.70
2006,12,21,07,13,9.80
2006,12,21,07,14,5.40
2006,12,21,07,15,7.20
2006,12,21,07,16,8.90
2006,12,21,07,17,5.80
2006,12,21,07,18,4.60
2006,12,21,07,19,7.10
2006,12,21,07,20,1.50
2006,12,21,07,21,0.80
2006,12,21,07,22,6.20
2006,12,21,07,23,5.10
2006,12,21,07,24,6.80
2006,12,21,07,25,4.50
2006,12,21,07,26,4.30
2006,12,21,07,27,3.40
2006,12,21,07,28,4.40
2006,12,21,07,29,2.60
2006,12,21,07,30,2.30
2006,12,21,07,31,5.00
2006,12,21,07,32,6.90
2006,12,21,07,33,4.10
2006,12,21,07,34,1.10
2006,12,21,07,35,3.80
2006,12,21,07,36,3.90
2006,12,21,07,37,6.00
2006,12,21,07,38,4.30
2006,12,21,07,39,4.10
2006,12,21,07,40,10.10
2006,12,21,07,41,11.00
2006,12,21,07,42,13.40
2006,12,21,07,43,17.00
2006,12,21,07,44,10.60
2006,12,21,07,45,14.70
2006,12,21,07,46,12.60
2006,12,21,07,47,16.00
2006,12,21,07,48,12.10
2006,12,21,07,49,17.70
2006,12,21,07,50,18.60
2006,12,21,07,51,14.60
2006,12,21,07,52,12.10
2006,12,21,07,53,9.20
2006,12,21,07,54,14.20
2006,12,21,07,55,17.30
2006,12,21,07,56,15.10
2006,12,21,07,57,18.80
2006,12,21,07,58,20.60
2006,12,21,07,59,13.50
2006,12,21,08,00,12.40
2006,12,21,08,01,17.30
2006,12,21,08,02,15.80
2006,12,21,08,03,21.00
2006,12,21,08,04,19.50
2006,12,21,08,05,18.70
2006,12,21,08,06,19.20
2006,12,21,08,07,19.10
2006,12,21,08,08,19.50
2006,12,21,08,09,14.10
2006,12,21,08,10,14.30
2006,12,21,08,11,15.90
2006,12,21,08,12,17.10
2006,12,21,08,13,18.60
2006,12,21,08,14,17.90
2006,12,21,08,15,18.90
2006,12,21,08,16,18.80
2006,12,21,08,17,19.00
2006,12,21,08,18,22.90
2006,12,21,08,19,22.50
2006,12,21,08,20,23.00
2006,12,21,08,21,29.70
2006,12,21,08,22,22.40
2006,12,21,08,23,18.70
2006,12,21,08,24,21.60
2006,12,21,08,25,25.90
2006,12,21,08,26,24.60
2006,12,21,08,27,25.70
2006,12,21,08,28,25.60
2006,12,21,08,29,22.90
2006,12,21,08,30,24.60
2006,12,21,08,31,20.70
2006,12,21,08,32,23.40
2006,12,21,08,33,20.10
2006,12,21,08,34,16.10
2006,12,21,08,35,17.90
2006,12,21,08,36,21.00
2006,12,21,08,37,22.90
2006,12,21,08,38,19.10
2006,12,21,08,39,21.50
2006,12,21,08,40,21.40
2006,12,21,08,41,19.50
2006,12,21,08,42,14.90
2006,12,21,08,43,19.30
2006,12,21,08,44,14.60
2006,12,21,08,45,16.20
2006,12,21,08,46,17.60
2006,12,21,08,47,16.40
2006,12,21,08,48,13.20
2006,12,21,08,49,18.50
2006,12,21,08,50,24.70
2006,12,21,08,51,19.10
2006,12,21,08,52,21.00
2006,12,21,08,53,22.40
2006,12,21,08,54,18.70
2006,12,21,08,55,19.70
2006,12,21,08,56,17.90
2006,12,21,08,57,15.20
2006,12,21,08,58,15.30
2006,12,21,08,59,11.10
2006,12,21,09,00,12.90
2006,12,21,09,01,10.60
2006,12,21,09,02,14.10
2006,12,21,09,03,10.50
2006,12,21,09,04,12.20
2006,12,21,09,05,15.10
2006,12,21,09,06,9.80
2006,12,21,09,07,10.70
2006,12,21,09,08,12.20
2006,12,21,09,09,12.30
2006,12,21,09,10,12.50
2006,12,21,09,11,12.10
2006,12,21,09,12,11.60
2006,12,21,09,13,14.00
2006,12,21,09,14,12.50
2006,12,21,09,15,12.40
2006,12,21,09,16,11.20
2006,12,21,09,17,11.20
2006,12,21,09,18,8.10
2006,12,21,09,19,6.80
2006,12,21,09,20,5.50
2006,12,21,09,21,6.70
2006,12,21,09,22,4.80
2006,12,21,09,23,7.00
2006,12,21,09,24,6.40
2006,12,21,09,25,9.20
2006,12,21,09,26,7.50
2006,12,21,09,27,9.70
2006,12,21,09,28,9.20
2006,12,21,09,29,8.20
2006,12,21,09,30,7.40
2006,12,21,09,31,6.30
2006,12,21,09,32,5.60
2006,12,21,09,33,9.60
2006,12,21,09,34,6.00
2006,12,21,09,35,5.60
2006,12,21,09,36,8.50
2006,12,21,09,37,8.50
2006,12,21,09,38,11.70
2006,12,21,09,39,13.50
2006,12,21,09,40,14.00
2006,12,21,09,41,5.40
2006,12,21,09,42,4.60
2006,12,21,09,43,6.70
2006,12,21,09,44,9.70
2006,12,21,09,45,6.80
2006,12,21,09,46,4.80
2006,12,21,09,47,6.40
2006,12,21,09,48,6.50
2006,12,21,09,49,7.80
2006,12,21,09,50,10.20
2006,12,21,09,51,9.70
2006,12,21,09,52,9.40
2006,12,21,09,53,11.30
2006,12,21,09,54,7.50
2006,12,21,09,55,9.00
2006,12,21,09,56,9.30
2006,12,21,09,57,8.30
2006,12,21,09,58,10.10
2006,12,21,09,59,6.20
2006,12,21,10,00,8.60
2006,12,21,10,01,13.80
2006,12,21,10,02,9.40
2006,12,21,10,03,11.20
2006,12,21,10,04,9.70
2006,12,21,10,05,14.00
2006,12,21,10,06,13.40
2006,12,21,10,07,9.90
2006,12,21,10,08,9.80
2006,12,21,10,09,9.10
2006,12,21,10,10,7.50
2006,12,21,10,11,4.70
2006,12,21,10,12,6.50
2006,12,21,10,13,7.50
2006,12,21,10,14,9.10
2006,12,21,10,15,6.70
2006,12,21,10,16,7.50
2006,12,21,10,17,6.40
2006,12,21,10,18,9.80
2006,12,21,10,19,13.90
2006,12,21,10,20,13.20
2006,12,21,10,21,11.30
2006,12,21,10,22,10.00
2006,12,21,10,23,10.50
2006,12,21,10,24,11.10
2006,12,21,10,25,10.30
2006,12,21,10,26,10.10
2006,12,21,10,27,8.30
2006,12,21,10,28,10.70
2006,12,21,10,29,8.40
2006,12,21,10,30,8.50
2006,12,21,10,31,8.10
2006,12,21,10,32,6.70
2006,12,21,10,33,11.10
2006,12,21,10,34,9.50
2006,12,21,10,35,9.70
2006,12,21,10,36,5.50
2006,12,21,10,37,5.80
2006,12,21,10,38,8.20
2006,12,21,10,39,6.80
2006,12,21,10,40,7.90
2006,12,21,10,41,9.20
2006,12,21,10,42,8.30
2006,12,21,10,43,10.30
2006,12,21,10,44,7.70
2006,12,21,10,45,6.70
2006,12,21,10,46,4.70
2006,12,21,10,47,3.20
2006,12,21,10,48,4.20
2006,12,21,10,49,7.70
2006,12,21,10,50,8.20
2006,12,21,10,51,5.80
2006,12,21,10,52,4.50
2006,12,21,10,53,2.20
2006,12,21,10,54,2.60
2006,12,21,10,55,1.80
2006,12,21,10,56,2.40
2006,12,21,10,57,3.90
2006,12,21,10,58,6.60
2006,12,21,10,59,8.20
2006,12,21,11,00,6.70
2006,12,21,11,01,5.50
2006,12,21,11,02,7.80
2006,12,21,11,03,6.10
2006,12,21,11,04,4.70
2006,12,21,11,05,2.20
2006,12,21,11,06,3.20
2006,12,21,11,07,3.20
2006,12,21,11,08,5.90
2006,12,21,11,09,2.90
2006,12,21,11,10,2.90
2006,12,21,11,11,5.00
2006,12,21,11,12,5.00
2006,12,21,11,13,4.40
2006,12,21,11,14,4.10
2006,12,21,11,15,6.00
2006,12,21,11,16,9.40
2006,12,21,11,17,3.90
2006,12,21,11,18,5.00
2006,12,21,11,19,6.20
2006,12,21,11,20,6.40
2006,12,21,11,21,6.60
2006,12,21,11,22,5.20
2006,12,21,11,23,4.90
2006,12,21,11,24,4.90
2006,12,21,11,25,5.30
2006,12,21,11,26,5.60
2006,12,21,11,27,3.90
2006,12,21,11,28,5.10
2006,12,21,11,29,2.20
2006,12,21,11,30,2.30
2006,12,21,11,31,1.70
2006,12,21,11,32,2.90
2006,12,21,11,33,3.50
2006,12,21,11,34,3.40
2006,12,21,11,35,3.70
2006,12,21,11,36,3.60
2006,12,21,11,37,6.70
2006,12,21,11,38,7.10
2006,12,21,11,39,4.60
2006,12,21,11,40,6.10
2006,12,21,11,41,4.10
2006,12,21,11,42,3.90
2006,12,21,11,43,3.40
2006,12,21,11,44,3.10
2006,12,21,11,45,3.30
2006,12,21,11,46,2.20
2006,12,21,11,47,0.90
2006,12,21,11,48,2.10
2006,12,21,11,49,4.10
2006,12,21,11,50,3.40
2006,12,21,11,51,3.90
2006,12,21,11,52,4.40
2006,12,21,11,53,6.90
2006,12,21,11,54,5.60
2006,12,21,11,55,7.70
2006,12,21,11,56,6.90
2006,12,21,11,57,5.00
2006,12,21,11,58,4.10
2006,12,21,11,59,7.00
2006,12,21,12,00,7.60
2006,12,21,12,01,5.80
2006,12,21,12,02,8.60
2006,12,21,12,03,5.60
2006,12,21,12,04,5.00
2006,12,21,12,05,7.40
2006,12,21,12,06,9.20
2006,12,21,12,07,7.10
2006,12,21,12,08,5.70
2006,12,21,12,09,6.70
2006,12,21,12,10,4.50
2006,12,21,12,11,3.20
2006,12,21,12,12,1.30
2006,12,21,12,13,0.60
2006,12,21,12,14,3.00
2006,12,21,12,15,2.20
2006,12,21,12,16,4.80
2006,12,21,12,17,5.70
2006,12,21,12,18,4.00
2006,12,21,12,19,3.20
2006,12,21,12,20,2.80
2006,12,21,12,21,5.20
2006,12,21,12,22,4.70
2006,12,21,12,23,1.10
2006,12,21,12,24,0.30
2006,12,21,12,25,0.40
2006,12,21,12,26,2.50
2006,12,21,12,27,0.80
2006,12,21,12,28,3.00
2006,12,21,12,29,2.20
2006,12,21,12,30,0.90
2006,12,21,12,31,0.00
2006,12,21,12,32,0.70
2006,12,21,12,33,0.00
2006,12,21,12,34,0.00
2006,12,21,12,35,1.50
2006,12,21,12,36,0.00
2006,12,21,12,37,0.00
2006,12,21,12,38,0.00
2006,12,21,12,39,0.00
2006,12,21,12,40,0.00
2006,12,21,12,41,0.00
2006,12,21,12,42,0.00
2006,12,21,12,43,0.00
2006,12,21,12,44,0.00
2006,12,21,12,45,0.00
2006,12,21,12,46,0.00
2006,12,21,12,47,0.00
2006,12,21,12,48,0.00
2006,12,21,12,49,0.00
2006,12,21,12,50,0.00
2006,12,21,12,51,0.00
2006,12,21,12,52,0.00
2006,12,21,12,53,0.00
2006,12,21,12,54,0.10
2006,12,21,12,55,0.00
2006,12,21,12,56,0.00
2006,12,21,12,57,0.00
2006,12,21,12,58,0.00
2006,12,21,12,59,0.00
2006,12,21,13,00,0.00
2006,12,21,13,01,0.00
2006,12,21,13,02,1.20
2006,12,21,13,03,0.90
2006,12,21,13,04,0.00
2006,12,21,13,05,0.00
2006,12,21,13,06,0.00
2006,12,21,13,07,0.00
2006,12,21,13,08,0.00
2006,12,21,13,09,0.00
2006,12,21,13,10,0.00
2006,12,21,13,11,0.00
2006,12,21,13,12,0.00
2006,12,21,13,13,2.90
2006,12,21,13,14,3.40
2006,12,21,13,15,2.60
2006,12,21,13,16,2.10
2006,12,21,13,17,3.20
2006,12,21,13,18,4.30
2006,12,21,13,19,5.60
2006,12,21,13,20,3.30
2006,12,21,13,21,0.70
2006,12,21,13,22,0.00
2006,12,21,13,23,1.70
2006,12,21,13,24,0.00
2006,12,21,13,25,2.30
2006,12,21,13,26,4.70
2006,12,21,13,27,2.80
2006,12,21,13,28,3.10
2006,12,21,13,29,1.90
2006,12,21,13,30,3.30
2006,12,21,13,31,7.50
2006,12,21,13,32,6.70
2006,12,21,13,33,3.20
2006,12,21,13,34,2.50
2006,12,21,13,35,7.30
2006,12,21,13,36,6.90
2006,12,21,13,37,1.90
2006,12,21,13,38,6.10
2006,12,21,13,39,8.50
2006,12,21,13,40,4.70
2006,12,21,13,41,4.10
2006,12,21,13,42,4.40
2006,12,21,13,43,4.90
2006,12,21,13,44,4.80
2006,12,21,13,45,6.60
2006,12,21,13,46,7.80
2006,12,21,13,47,6.40
2006,12,21,13,48,6.80
2006,12,21,13,49,5.30
2006,12,21,13,50,7.60
2006,12,21,13,51,6.40
2006,12,21,13,52,6.60
2006,12,21,13,53,3.40
2006,12,21,13,54,2.90
2006,12,21,13,55,4.30
2006,12,21,13,56,4.50
2006,12,21,13,57,2.70
2006,12,21,13,58,4.20
2006,12,21,13,59,3.50
2006,12,21,14,00,2.30
2006,12,21,14,01,1.10
2006,12,21,14,02,0.00
2006,12,21,14,03,0.80
2006,12,21,14,04,0.20
2006,12,21,14,05,2.90
2006,12,21,14,06,4.90
2006,12,21,14,07,6.60
2006,12,21,14,08,7.00
2006,12,21,14,09,5.30
2006,12,21,14,10,4.80
2006,12,21,14,11,5.60
2006,12,21,14,12,7.50
2006,12,21,14,13,8.10
2006,12,21,14,14,6.60
2006,12,21,14,15,5.20
2006,12,21,14,16,6.80
2006,12,21,14,17,7.40
2006,12,21,14,18,6.40
2006,12,21,14,19,6.70
2006,12,21,14,20,8.10
2006,12,21,14,21,8.80
2006,12,21,14,22,8.50
2006,12,21,14,23,8.50
2006,12,21,14,24,6.50
2006,12,21,14,25,6.90
2006,12,21,14,26,5.40
2006,12,21,14,27,2.20
2006,12,21,14,28,1.70
2006,12,21,14,29,1.40
2006,12,21,14,30,0.00
2006,12,21,14,31,0.00
2006,12,21,14,32,1.10
2006,12,21,14,33,1.20
2006,12,21,14,34,3.50
2006,12,21,14,35,3.30
2006,12,21,14,36,3.20
2006,12,21,14,37,3.20
2006,12,21,14,38,1.00
2006,12,21,14,39,0.00
2006,12,21,14,40,0.50
2006,12,21,14,41,2.40
2006,12,21,14,42,2.50
2006,12,21,14,43,4.60
2006,12,21,14,44,6.30
2006,12,21,14,45,3.80
2006,12,21,14,46,1.40
2006,12,21,14,47,3.40
2006,12,21,14,48,3.20
2006,12,21,14,49,2.60
2006,12,21,14,50,4.40
2006,12,21,14,51,2.30
2006,12,21,14,52,2.60
2006,12,21,14,53,3.60
2006,12,21,14,54,3.20
2006,12,21,14,55,5.30
2006,12,21,14,56,5.60
2006,12,21,14,57,1.40
2006,12,21,14,58,1.10
2006,12,21,14,59,0.90
2006,12,21,15,00,0.90
2006,12,21,15,01,2.60
2006,12,21,15,02,0.60
2006,12,21,15,03,2.70
2006,12,21,15,04,3.90
2006,12,21,15,05,3.80
2006,12,21,15,06,4.70
2006,12,21,15,07,5.30
2006,12,21,15,08,4.80
2006,12,21,15,09,3.30
2006,12,21,15,10,4.90
2006,12,21,15,11,3.50
2006,12,21,15,12,3.80
2006,12,21,15,13,4.00
2006,12,21,15,14,4.70
2006,12,21,15,15,4.20
2006,12,21,15,16,4.70
2006,12,21,15,17,5.70
2006,12,21,15,18,5.90
2006,12,21,15,19,6.30
2006,12,21,15,20,5.10
2006,12,21,15,21,1.90
2006,12,21,15,22,2.70
2006,12,21,15,23,4.90
2006,12,21,15,24,5.70
2006,12,21,15,25,4.40
2006,12,21,15,26,3.60
2006,12,21,15,27,3.70
2006,12,21,15,28,4.00
2006,12,21,15,29,3.60
2006,12,21,15,30,1.10
2006,12,21,15,31,3.10
2006,12,21,15,32,4.00
2006,12,21,15,33,2.50
2006,12,21,15,34,1.20
2006,12,21,15,35,0.00
2006,12,21,15,36,0.00
2006,12,21,15,37,0.00
2006,12,21,15,38,0.10
2006,12,21,15,39,0.00
2006,12,21,15,40,0.00
2006,12,21,15,41,0.00
2006,12,21,15,42,0.00
2006,12,21,15,43,0.00
2006,12,21,15,44,0.00
2006,12,21,15,45,0.00
2006,12,21,15,46,0.00
2006,12,21,15,47,0.70
2006,12,21,15,48,0.00
2006,12,21,15,49,0.00
2006,12,21,15,50,0.00
2006,12,21,15,51,0.00
2006,12,21,15,52,1.70
2006,12,21,15,53,1.60
2006,12,21,15,54,1.80
2006,12,21,15,55,0.20
2006,12,21,15,56,0.00
2006,12,21,15,57,0.00
2006,12,21,15,58,0.00
2006,12,21,15,59,1.10
2006,12,21,16,00,2.60
2006,12,21,16,01,3.90
2006,12,21,16,02,3.00
2006,12,21,16,03,2.20
2006,12,21,16,04,0.30
2006,12,21,16,05,0.00
2006,12,21,16,06,0.00
2006,12,21,16,07,0.00
2006,12,21,16,08,0.00
2006,12,21,16,09,0.00
2006,12,21,16,10,0.00
2006,12,21,16,11,0.00
2006,12,21,16,12,0.00
2006,12,21,16,13,0.00
2006,12,21,16,14,0.00
2006,12,21,16,15,0.00
2006,12,21,16,16,0.00
2006,12,21,16,17,0.00
2006,12,21,16,18,0.00
2006,12,21,16,19,0.00
2006,12,21,16,20,0.00
2006,12,21,16,21,0.00
2006,12,21,16,22,0.00
2006,12,21,16,23,0.00
2006,12,21,16,24,0.00
2006,12,21,16,25,0.00
2006,12,21,16,26,0.00
2006,12,21,16,27,0.00
2006,12,21,16,28,0.00
2006,12,21,16,29,1.50
2006,12,21,16,30,2.00
2006,12,21,16,31,1.90
2006,12,21,16,32,0.20
2006,12,21,16,33,0.20
2006,12,21,16,34,0.70
2006,12,21,16,35,1.40
2006,12,21,16,36,0.10
2006,12,21,16,37,2.40
2006,12,21,16,38,4.10
2006,12,21,16,39,4.20
2006,12,21,16,40,2.30
2006,12,21,16,41,1.60
2006,12,21,16,42,2.70
2006,12,21,16,43,4.70
2006,12,21,16,44,8.30
2006,12,21,16,45,9.60
2006,12,21,16,46,10.50
2006,12,21,16,47,11.80
2006,12,21,16,48,9.30
2006,12,21,16,49,14.10
2006,12,21,16,50,15.10
2006,12,21,16,51,21.70
2006,12,21,16,52,19.10
2006,12,21,16,53,16.80
2006,12,21,16,54,13.00
2006,12,21,16,55,13.50
2006,12,21,16,56,13.60
2006,12,21,16,57,16.30
2006,12,21,16,58,14.90
2006,12,21,16,59,15.10
2006,12,21,17,00,17.00
2006,12,21,17,01,15.30
2006,12,21,17,02,12.50
2006,12,21,17,03,13.10
2006,12,21,17,04,8.40
2006,12,21,17,05,7.70
2006,12,21,17,06,7.00
2006,12,21,17,07,6.10
2006,12,21,17,08,6.30
2006,12,21,17,09,1.00
2006,12,21,17,10,4.60
2006,12,21,17,11,4.20
2006,12,21,17,12,5.00
2006,12,21,17,13,4.60
2006,12,21,17,14,1.90
2006,12,21,17,15,3.50
2006,12,21,17,16,6.60
2006,12,21,17,17,6.40
2006,12,21,17,18,4.10
2006,12,21,17,19,1.90
2006,12,21,17,20,0.20
2006,12,21,17,21,1.20
2006,12,21,17,22,1.80
2006,12,21,17,23,3.90
2006,12,21,17,24,2.40
2006,12,21,17,25,4.20
2006,12,21,17,26,5.20
2006,12,21,17,27,4.70
2006,12,21,17,28,5.40
2006,12,21,17,29,3.50
2006,12,21,17,30,0.10
2006,12,21,17,31,0.00
2006,12,21,17,32,2.20
2006,12,21,17,33,4.30
2006,12,21,17,34,2.70
2006,12,21,17,35,2.80
2006,12,21,17,36,1.10
2006,12,21,17,37,2.00
2006,12,21,17,38,0.50
2006,12,21,17,39,0.10
2006,12,21,17,40,0.00
2006,12,21,17,41,0.00
2006,12,21,17,42,0.00
2006,12,21,17,43,0.00
2006,12,21,17,44,0.00
2006,12,21,17,45,0.00
2006,12,21,17,46,0.00
2006,12,21,17,47,0.00
2006,12,21,17,48,0.00
2006,12,21,17,49,0.00
2006,12,21,17,50,0.00
2006,12,21,17,51,1.70